{"data":{"norad_id":61182,"epoch":"2026-09-19T09:48:08.721792Z","epoch_age_seconds":112653,"freshness":"FRESH","line1":"1 61182U 24167A   26262.40843428  .00000017  00000+0  00000+0 0  9995","line2":"2 61182  55.1639 218.7303 0005399 235.5148 318.9498  1.70473721 12486","mean_motion":1.70473721,"eccentricity":0.0005399,"inclination_deg":55.1639,"raan_deg":218.7303,"arg_perigee_deg":235.5148,"mean_anomaly_deg":318.9498,"bstar":0,"rev_number":1248,"period_min":844.70497361878,"perigee_km":23206.234123556,"apogee_km":23238.196584028,"semimajor_km":29600.352353792,"source":"CELESTRAK","updated_at":"2026-09-20T09:00:46.499002Z"}}